Regional Weather Roundup
Issued by NWS

Home | Current Version | Previous Version | Graphics & Text | Print | Product List | Glossary On
Versions: 1 2 3 4 5 6 7 8 9 10 11 12 13 14 15 16 17 18 19 20 21 22 23 24 25 26 27 28 29 30 31 32 33 34 35 36 37 38 39 40 41 42 43 44 45 46 47 48 49 50
345
ASUS45 KABQ 300710
RWRNM
NEW MEXICO REGIONAL WEATHER ROUNDUP
NATIONAL WEATHER SERVICE ALBUQUERQUE NM
100 AM MDT MON MAY 30 2016

NOTE: "FAIR" MEANS FEW OR NO CLOUDS BELOW 12,000 FEET AGL WITH NO
       SIGNIFICANT WEATHER OR OBSTRUCTIONS TO VISION.

      THIS PRODUCT IS RELEASED AS TWO VERSIONS.  ONE VERSION NEAR
      THE TOP OF THE HOUR CONTAINING PRELIMINARY DATA FROM ALBUQUERQUE
      AND OTHER STATIONS.  A FINAL VERSION WITH ADDITIONAL DATA IS
      ISSUED ABOUT 10 MINUTES AFTER THE HOUR.

NMZ501-503-504-510>518-300800-
NORTHWEST PLATEAU/NORTHCENTRAL MOUNTAINS

CITY           SKY/WX    TMP DP  RH WIND       PRES   REMARKS
FARMINGTON     FAIR      53  19  26 NE8       30.05R
LOS ALAMOS     FAIR      60  29  32 S9        30.21R
SANTA FE       FAIR      60  43  53 SE23G29   30.14R
TAOS           FAIR      57  36  44 E9G20     30.21R
ANGEL FIRE     FAIR      47  41  80 S6        30.31F

$$
NMZ402-403-502-505>509-300800-
WESTCENTRAL MOUNTAINS/SOUTHWEST MOUNTAINS

CITY           SKY/WX    TMP DP  RH WIND       PRES   REMARKS
GALLUP         FAIR      44  16  32 E3        30.16S
GRANTS         FAIR      54  10  17 N3        30.18S
SILVER CITY      N/A     59  19  21 NW6       30.14S

$$
NMZ407-409-411-412-300800-
SOUTHERN DESERTS

CITY           SKY/WX    TMP DP  RH WIND       PRES   REMARKS
LORDSBURG      FAIR      72  32  23 NE3       30.06R
DEMING         FAIR      67  36  31 S5        30.05S
LAS CRUCES     FAIR      70  32  24 W8        30.07S
HOLLOMAN AFB   MOCLDY    76  34  21 SE9       30.01F
ALAMOGORDO     FAIR      73  32  21 S7        30.04S
T OR C         FAIR      71  32  23 S8        30.05F

$$
NMZ519>523-300800-
CENTRAL VALLEYS/CENTRAL HIGHLANDS

CITY           SKY/WX    TMP DP  RH WIND       PRES   REMARKS
ALBUQUERQUE    MOCLDY    64  16  15 SE9       30.08R
DOUBLE EAGLE   FAIR      63  13  14 SW14      30.10S
MORIARTY ARPT  FAIR      55  44  66 SE23G30   30.18R
CLINES CORNERS MOCLDY    48  45  89 E18       30.23R
BELEN          FAIR      61  12  14 S8        30.08R
SOCORRO        FAIR      62  24  23 SE5       30.06R

$$
NMZ524>526-539-540-300800-
SOUTHCENTRAL MOUNTAINS

CITY           SKY/WX    TMP DP  RH WIND       PRES   REMARKS
RUIDOSO          N/A     50  46  87 E5        30.27F

$$
NMZ527>531-300800-
NORTHEAST HIGHLANDS/NORTHEAST PLAINS

CITY           SKY/WX    TMP DP  RH WIND       PRES   REMARKS
LAS VEGAS      FAIR      45  43  93 SW7       30.27S
RATON          CLOUDY    51  45  79 SW3       30.24F
CLAYTON        FAIR      52  50  93 SW16      30.14F

$$
NMZ532>537-300800-
EASTCENTRAL PLAINS

CITY           SKY/WX    TMP DP  RH WIND       PRES   REMARKS
TUCUMCARI      FAIR      52  50  93 W3        30.15S
CANNON AFB     FAIR      50  50 100 S5        30.14F
CLOVIS AIRPORT FAIR      52  46  82 S3        30.13F

$$
NMZ028-029-538-300800-
SOUTHEAST PLAINS

CITY           SKY/WX    TMP DP  RH WIND       PRES   REMARKS
ROSWELL        CLOUDY    62  50  64 SE7       30.13S
ARTESIA        CLOUDY    63  55  77 SE8       30.12R
CARLSBAD       CLOUDY    61  54  77 E10       30.09S
HOBBS          FAIR      57  57 100 E13       30.12F


$$




USA.gov is the U.S. government's official web portal to all federal, state and local government web resources and services.